Theta_e
344 345 344 343 342 342 340 336 335 333 332 330 329 326 325 323 326 330 330 341 345 346 352 355 358 356 355 354 352 353 352 352 353 352 350 349 349 349 350 350 349 349 348
344 343 343 343 342 341 341 339 335 332 329 327 325 325 325 325 326 329 332 335 346 351 350 355 358 359 358 356 354 353 352 351 351 352 351 350 349 349 350 350 349 349 348
345 344 343 342 343 341 338 335 333 330 328 327 327 327 327 326 327 333 337 339 339 350 351 353 355 357 358 358 357 355 352 351 351 351 351 350 349 348 349 350 350 349 348
349 345 345 342 342 340 338 336 336 332 329 329 328 327 328 329 329 332 337 341 340 340 347 351 352 354 356 358 359 358 355 352 350 350 350 350 349 349 348 349 349 349 348
350 348 345 345 341 338 337 337 335 332 332 327 327 329 329 328 331 335 338 340 341 343 342 346 349 350 353 356 359 359 357 354 350 349 349 349 350 350 349 349 349 349 348
344 343 346 344 340 337 335 335 334 332 332 331 327 327 328 330 332 333 336 341 342 342 343 342 342 347 350 352 355 357 358 357 353 351 349 348 348 349 349 349 349 348 348
342 341 341 340 337 337 337 335 334 331 330 327 324 324 326 329 329 333 336 337 339 343 343 341 341 342 344 349 350 353 356 357 356 353 348 346 347 348 349 349 348 347 347
342 341 340 339 339 339 338 336 334 334 333 331 328 324 323 325 326 331 332 335 336 339 339 340 340 340 342 342 345 349 352 356 358 355 350 347 347 348 350 349 348 348 346
336 339 340 339 338 338 338 339 337 334 333 333 331 327 316 319 325 322 328 332 332 335 337 339 339 340 338 338 341 344 347 350 355 356 348 342 343 345 345 346 343 345 346
324 330 331 333 336 338 338 339 339 336 335 331 333 331 331 323 318 316 323 326 331 331 334 337 337 338 338 338 341 343 343 344 349 349 348 347 347 346 343 347 346 346 345
321 324 325 326 327 332 338 338 338 336 335 334 333 332 328 329 324 320 321 323 329 331 334 335 336 338 339 339 339 340 337 337 338 339 338 339 339 342 346 346 346 347 347
320 323 324 323 323 324 326 332 338 337 336 336 335 333 331 326 326 325 324 326 325 328 331 333 335 337 339 338 341 338 334 332 330 329 330 332 335 340 342 344 344 347 349
318 318 319 320 322 324 326 328 331 334 333 335 335 334 334 332 330 327 321 315 319 323 327 333 336 337 337 336 336 336 334 329 326 325 326 328 331 335 337 339 340 342 345
316 318 320 321 321 324 326 328 329 331 333 332 332 334 335 334 325 321 318 316 314 320 323 324 328 333 334 333 333 334 332 328 326 324 323 325 327 329 331 332 333 334 336
318 319 320 318 319 319 320 321 323 325 328 328 330 332 333 332 328 324 321 321 317 311 314 321 322 328 330 331 331 331 330 330 328 325 323 323 324 325 326 326 327 328 329
316 318 316 316 316 317 317 316 318 322 324 326 327 326 328 326 324 323 322 323 321 316 313 322 324 326 327 329 331 331 331 330 327 325 324 323 321 322 322 323 323 324 324
314 315 314 315 315 314 313 314 316 320 322 323 325 325 325 326 324 323 323 322 321 319 315 318 324 327 327 328 331 333 332 331 331 324 324 322 320 319 320 319 319 320 321
313 313 313 313 314 314 312 312 312 316 316 317 320 323 325 325 324 324 323 319 319 320 319 316 322 324 325 328 327 327 330 333 330 328 324 321 319 317 315 315 314 314 315
313 313 312 313 313 313 312 312 314 315 314 315 316 319 323 324 322 322 322 320 319 320 319 319 319 320 322 323 323 323 323 323 328 330 322 319 319 317 319 315 313 313 314
310 312 313 313 312 313 314 314 315 315 316 317 317 318 321 323 321 320 319 319 320 319 320 320 318 318 319 320 319 317 316 316 319 327 326 320 319 319 317 314 314 315 312
307 309 312 313 313 313 315 317 314 314 313 314 317 319 321 323 321 321 320 320 319 319 319 317 317 313 311 310 311 311 308 308 313 318 318 320 321 320 320 315 318 317 311
303 306 309 312 312 314 308 305 306 310 313 312 315 319 321 319 317 314 315 316 320 320 318 318 312 309 306 306 307 305 306 309 305 316 317 316 320 319 320 320 315 311 309
301 304 308 309 309 310 304 303 304 310 314 314 318 319 320 322 317 318 313 312 313 312 315 316 310 305 305 305 305 303 306 308 311 315 317 313 315 315 318 323 310 308 307
299 301 305 307 308 310 304 301 303 312 313 315 318 319 320 320 321 321 315 313 312 310 313 313 307 306 307 307 309 308 307 308 310 314 319 310 312 313 320 324 309 306 305
301 302 304 304 306 309 303 300 302 313 314 314 319 317 315 314 305 305 313 311 310 309 306 304 304 302 301 300 306 307 304 305 303 305 310 312 312 313 320 320 315 306 305
298 299 300 302 305 308 302 300 301 313 313 313 316 317 308 310 301 302 312 309 306 307 310 308 308 304 303 303 301 306 304 301 302 304 311 314 309 313 317 320 313 309 307
Wind_Speed
7 7 7 6 6 4 4 3 3 4 4 4 4 5 9 6 6 5 4 13 13 16 18 17 16 16 16 16 14 14 14 14 15 14 14 14 14 14 14 14 13 12 13
7 6 6 7 7 6 6 7 7 6 5 5 6 7 9 7 9 7 5 6 12 14 18 18 16 17 17 17 15 14 14 14 14 13 14 14 15 15 15 16 15 15 15
6 7 6 7 7 6 6 4 6 5 5 5 9 8 6 9 9 9 7 7 7 12 15 18 18 19 17 17 15 15 14 14 13 13 13 14 15 15 15 16 16 16 16
7 6 7 7 6 5 6 6 6 6 8 8 8 7 7 7 10 10 9 8 7 5 12 19 18 17 17 17 16 16 14 12 12 13 13 14 14 14 15 16 16 17 18
9 8 7 8 5 5 6 7 7 6 8 7 7 7 8 7 8 8 11 8 8 9 6 11 19 18 19 20 20 17 17 13 14 14 14 14 14 14 17 18 17 18 18
8 7 8 7 5 4 5 5 9 6 9 8 7 8 6 7 7 8 10 8 8 8 9 8 5 8 14 17 18 17 16 14 15 13 12 13 15 16 15 16 17 20 20
7 7 7 6 5 6 9 6 6 9 8 3 1 4 6 7 8 10 9 9 10 11 8 8 6 5 5 17 17 17 17 15 13 13 13 13 14 14 16 17 20 22 22
6 5 6 6 7 7 7 9 8 10 7 5 7 4 8 7 7 11 7 8 12 8 10 9 9 9 8 5 8 17 19 15 15 14 13 13 12 13 13 17 20 21 22
4 4 6 5 7 7 8 10 10 13 12 9 10 7 0 8 9 4 10 11 11 9 9 9 9 10 7 7 8 12 17 13 15 16 13 12 10 11 14 15 19 20 20
4 5 6 5 5 6 7 9 8 10 9 12 7 10 11 4 7 5 3 4 9 12 14 10 8 8 8 8 11 11 11 14 15 14 13 11 11 12 15 11 14 17 19
3 5 5 6 6 4 7 9 9 9 9 11 12 11 9 10 5 6 14 8 2 5 8 10 6 8 9 8 7 9 13 13 12 11 11 9 8 10 11 11 14 14 15
3 4 5 5 6 6 7 7 9 11 10 10 10 11 11 7 7 7 9 14 10 10 3 5 5 7 8 7 10 12 14 14 11 11 12 8 9 9 9 9 13 14 15
3 5 4 4 3 6 8 8 9 9 10 10 12 10 10 10 7 1 4 4 2 3 4 5 6 7 8 7 9 14 13 11 11 12 13 10 10 10 8 9 11 12 14
4 5 6 5 6 6 5 6 7 8 8 8 12 12 9 7 6 6 9 5 4 4 4 5 3 4 4 3 7 8 5 9 11 12 13 12 10 7 8 9 11 11 12
4 6 6 6 6 6 6 6 5 8 9 9 10 12 12 9 10 9 8 7 7 4 5 6 9 6 5 6 8 6 7 10 15 14 14 10 7 9 8 9 10 11 9
6 6 6 6 7 7 6 6 6 7 8 8 8 10 11 8 10 10 11 10 8 10 12 11 10 11 7 6 8 6 8 11 13 12 11 10 9 10 8 9 10 8 10
7 7 7 7 7 8 7 6 8 10 10 11 10 11 15 13 10 11 11 10 10 12 15 9 9 9 5 5 4 4 5 5 5 8 7 5 9 9 8 7 7 7 8
8 8 7 7 7 7 7 7 10 10 11 12 14 14 17 12 16 15 13 14 13 13 12 15 8 9 12 5 3 6 5 4 5 8 10 10 11 9 6 6 7 7 7
10 9 8 10 9 8 7 8 12 11 13 13 15 16 18 17 17 14 15 14 12 11 10 8 6 2 4 3 6 5 4 3 4 7 6 7 6 5 5 3 4 6 6
10 11 12 13 10 9 8 9 11 11 13 14 18 19 19 19 18 16 14 15 11 10 10 8 4 3 2 3 4 4 2 1 2 1 2 4 6 8 9 7 7 7 7
13 14 13 12 12 9 7 10 10 9 11 14 17 19 19 19 21 21 12 11 12 11 9 9 6 3 4 4 5 3 3 1 2 1 1 1 2 2 4 6 6 12 10
15 16 15 11 11 8 11 16 11 9 11 12 17 16 17 17 14 14 12 13 12 11 9 7 4 4 5 4 3 3 2 2 1 2 2 1 1 2 3 3 9 12 12
12 16 15 10 9 10 13 15 15 10 9 13 16 8 10 9 12 11 10 10 10 12 8 9 11 5 5 7 6 4 3 3 3 2 3 2 0 3 3 3 9 10 10
15 15 12 11 11 8 12 14 18 9 6 12 6 5 10 10 12 11 7 7 6 7 7 4 6 7 5 7 6 5 6 3 2 3 2 2 1 4 2 1 3 8 7
12 10 9 8 8 10 12 17 12 5 5 8 6 3 8 9 15 16 9 7 7 5 5 8 9 8 8 8 6 5 3 3 2 3 3 4 3 1 1 1 2 4 7
12 11 11 10 11 12 12 14 10 4 6 9 10 7 9 6 13 16 13 10 8 5 6 5 4 6 7 4 6 4 4 4 3 2 4 5 2 3 1 2 2 4 4
Wind_Direction
208 197 200 204 197 208 203 227 251 272 268 263 259 273 280 274 262 243 236 257 254 244 239 235 234 239 233 225 221 217 216 218 218 222 222 222 222 218 222 227 230 232 235
206 202 217 221 226 214 208 209 220 231 244 238 251 241 255 263 263 253 247 255 263 247 236 232 225 233 235 231 225 226 220 222 224 221 221 222 224 224 222 225 224 225 232
216 218 220 224 224 214 219 208 207 212 233 234 250 249 250 257 259 265 259 248 243 229 233 228 229 231 229 234 228 229 231 227 229 223 218 221 225 224 229 229 229 229 228
234 228 236 244 236 214 205 221 232 241 246 238 242 236 236 232 242 246 256 249 245 238 230 234 234 236 233 232 235 232 231 230 232 229 223 224 227 229 227 234 234 233 232
227 226 233 247 226 224 224 224 226 217 243 242 246 248 243 241 245 248 244 243 235 233 233 244 239 231 228 223 221 223 226 216 225 223 221 222 227 225 225 228 234 233 233
221 225 240 242 222 215 221 215 235 224 237 238 235 245 234 234 234 239 242 242 239 229 231 232 224 238 237 243 248 223 223 219 222 221 218 221 225 228 229 228 231 235 232
237 226 231 239 245 230 247 237 231 237 245 216 250 257 253 243 240 249 243 241 239 243 245 226 220 225 223 227 230 229 227 222 226 219 214 218 223 229 233 231 231 229 229
234 246 244 237 230 242 235 236 235 254 252 214 231 261 272 271 238 236 235 234 243 243 243 240 235 227 228 225 221 223 225 221 221 219 224 223 221 231 240 244 244 238 234
295 248 240 230 230 230 243 238 242 241 254 252 211 210 323 235 266 240 230 235 236 237 242 237 226 227 214 219 222 229 227 209 221 222 216 227 232 237 247 251 267 260 244
292 298 296 277 238 235 242 243 237 234 239 253 253 233 245 235 230 289 277 258 240 241 239 235 230 228 217 222 220 208 204 198 206 215 222 224 230 246 266 279 271 261 258
264 265 276 294 294 247 248 245 243 228 229 237 248 251 235 243 243 236 266 264 320 254 262 251 224 220 221 214 221 207 197 211 218 227 245 228 243 274 278 284 285 285 272
267 271 277 276 283 291 281 267 248 246 242 239 247 247 245 232 228 237 251 263 274 281 296 254 230 229 224 209 216 210 198 212 227 245 258 246 262 259 264 278 290 293 284
239 273 289 289 272 265 285 286 275 257 250 241 244 243 244 238 242 20 351 25 349 306 271 254 245 242 241 205 210 199 206 227 225 251 261 241 239 242 261 272 279 283 280
201 225 250 265 274 267 265 274 281 276 265 258 243 241 236 225 150 144 162 155 12 359 325 334 266 229 245 315 263 196 206 239 230 236 239 232 232 246 252 273 285 275 269
208 219 229 253 266 276 272 268 266 275 275 271 260 239 222 207 197 207 198 161 161 188 267 256 246 307 340 285 248 241 244 243 230 221 225 221 236 247 246 263 271 274 275
211 217 235 235 256 252 261 268 263 263 266 269 263 230 222 208 203 189 189 196 198 196 222 213 227 224 197 221 238 225 234 240 239 218 212 212 218 238 247 252 258 280 286
220 217 222 230 236 249 239 246 256 266 265 266 258 240 238 217 197 194 202 203 200 202 223 231 227 229 236 208 249 237 233 219 234 229 228 228 237 240 241 247 262 279 274
279 237 227 234 241 242 249 246 262 264 262 266 262 252 244 228 216 205 207 213 209 210 220 232 224 217 219 206 225 235 228 221 229 226 221 224 231 227 226 247 299 292 274
278 270 258 251 244 242 245 250 258 268 271 270 269 261 253 240 227 217 214 212 207 209 207 208 205 186 208 108 226 237 230 245 240 235 209 227 216 211 235 246 277 267 247
272 269 264 258 252 249 243 251 254 260 268 270 268 260 251 244 229 215 207 205 193 190 194 194 180 156 65 190 214 178 200 249 245 22 198 201 180 206 205 196 202 228 237
265 263 261 261 255 251 249 242 250 256 261 276 270 262 252 236 219 214 206 188 184 185 184 193 182 134 169 190 184 177 174 197 314 220 165 214 191 226 234 205 203 216 211
266 262 254 241 251 254 244 240 248 274 265 281 284 250 237 206 200 177 174 179 165 171 174 172 139 166 192 182 136 155 132 95 283 270 108 268 145 265 260 220 206 200 199
268 265 252 231 229 246 244 257 258 265 287 303 279 204 211 187 168 174 189 173 168 183 195 166 179 176 163 178 147 155 157 154 205 258 110 268 279 279 283 247 217 203 188
274 269 269 257 245 238 242 260 260 266 291 308 302 196 194 180 172 163 141 138 143 164 152 150 156 165 143 156 153 159 161 164 318 288 156 216 235 256 280 339 196 167 173
282 276 274 268 273 256 237 250 257 268 300 294 356 51 107 110 118 119 121 118 172 121 126 110 100 125 129 131 139 119 140 115 241 256 213 183 225 231 171 124 68 117 164
275 281 275 267 266 264 243 245 253 236 300 301 337 25 39 101 133 146 161 167 127 139 126 107 103 93 92 118 181 197 143 178 171 268 222 172 155 139 236 76 112 137 154